Flag for Germany

Past Weather in Itzehoe, Schleswig-Holstein, Germany — Yesterday and Last 2 Weeks

Now
66 °F

Broken clouds.


Feels Like: 66 °F
Forecast: 63 / 56 °F
Wind: 9 mph from Southwest

Location: Hohn

Current Time: Jul 3, 2020 at 1:08:11 pm

Latest Report: Jul 3, 2020 at 12:20 pm


Visibility: N/A

Pressure: 29.92 "Hg

Humidity: 60%

Dew Point: 52 °F

Location of ItzehoeLocation

Past Weather in Itzehoe — Graph

°F

Itzehoe Temperature Yesterday

Maximum temperature yesterday: 68 °F (at 2:20 pm)
Minimum temperature yesterday: 55 °F (at 5:20 am)
Average temperature yesterday: 62 °F

High & Low Weather Summary for the Past Weeks

 TemperatureHumidityPressure
High86 °F (Jun 27, 1:20 pm)100% (Jun 21, 3:20 am)30.30 "Hg (Jun 21, 3:20 am)
Low45 °F (Jun 23, 4:20 am)36% (Jun 23, 5:20 pm)29.56 "Hg (Jul 1, 5:20 pm)
Average64 °F73%29.92 "Hg
* Reported Jun 18 11:20 am — Jul 3 11:20 am, Itzehoe. Weather by CustomWeather, © 2020

Note: Actual official high and low records may vary slightly from our data, if they occured in-between our weather recording intervals... More about our weather records

Itzehoe Weather History for the Previous 24 Hours

Scroll right to see more
 ConditionsComfort  
Time TempWeatherWind HumidityBarometerVisibility
11:20 am
Fri, Jul 3
63 °FPartly sunny.7 mph64%29.92 "HgN/A
10:20 am61 °FPartly sunny.7 mph63%29.92 "HgN/A
9:20 am59 °FPartly sunny.3 mph68%29.92 "HgN/A
8:20 am59 °FBroken clouds.3 mph68%29.92 "HgN/A
7:20 am57 °FPartly sunny.2 mph72%29.92 "HgN/A
6:20 am55 °FPartly sunny.1 mph82%29.89 "HgN/A
5:20 am54 °FPartly sunny.2 mph88%29.89 "HgN/A
4:20 am55 °FPassing clouds.5 mph82%29.89 "HgN/A
3:20 am55 °FPassing clouds.2 mph77%29.89 "HgN/A
2:20 am57 °FPassing clouds.8 mph72%29.86 "HgN/A
1:20 am57 °FPassing clouds.5 mph72%29.86 "HgN/A
12:20 am57 °FPassing clouds.8 mph72%29.86 "HgN/A
11:20 pm
Thu, Jul 2
59 °FPartly cloudy.8 mph68%29.83 "HgN/A
10:20 pm61 °FPassing clouds.3 mph72%29.83 "HgN/A
9:20 pm63 °FBroken clouds.6 mph68%29.80 "HgN/A
8:20 pm64 °FBroken clouds.7 mph68%29.80 "HgN/A
7:20 pm64 °FPartly sunny.7 mph64%29.80 "HgN/A
6:20 pm64 °FPartly sunny.10 mph64%29.77 "HgN/A
5:20 pm66 °FPartly sunny.10 mph64%29.77 "HgN/A
4:20 pm68 °FPartly sunny.10 mph60%29.77 "HgN/A
3:20 pm68 °FPartly sunny.12 mph56%29.77 "HgN/A
2:20 pm68 °FScattered clouds.12 mph56%29.77 "HgN/A
1:20 pm66 °FScattered clouds.14 mph60%29.77 "HgN/A
Weather by CustomWeather, © 2020

See weather overview